Regional Weather Roundup
Issued by NWS

Home | Current Version | Previous Version | Graphics & Text | Print | Product List | Glossary On
Versions: 1 2 3 4 5 6 7 8 9 10 11 12 13 14 15 16 17 18 19 20 21 22 23 24 25 26 27 28 29 30 31 32 33 34 35 36 37 38 39 40 41 42 43 44 45 46 47 48 49 50
000
ASUS43 KLSX 222059
RWRMO

WEATHER SUMMARY FOR MISSOURI
NATIONAL WEATHER SERVICE SPRINGFIELD MO
400 PM CDT FRI AUG 22 2014

NOTE: "FAIR" INDICATES FEW OR NO CLOUDS BELOW 12,000 FEET WITH NO
       SIGNIFICANT WEATHER AND/OR OBSTRUCTIONS TO VISIBILITY.
       CURRENT SKY AND/OR WEATHER CONDITIONS ARE NOT AVAILABLE FOR
       CHILLICOTHE AND FARMINGTON.

MOZ001>031-035>038-043-044-053-054-222200-
...NORTHERN AND WESTERN MISSOURI...

CITY           SKY/WX    TMP DP  RH WIND       PRES   REMARKS
KANSAS CTY INT PTSUNNY   90  75  61 SE10      29.91F HX 100
KANSAS C DTWN  PTSUNNY   93  75  55 E8        29.89F HX 104
LEE`S SUMMIT   PTSUNNY   91  75  59 S8        29.92F HX 101
ST JOSEPH      CLOUDY    85  78  80 N12       29.94R HX  96
KIRKSVILLE     MOSUNNY   89  77  67 S9        29.93F HX 101

$$
MOZ066>068-077>081-088>096-101>105-222200-
...SOUTHWEST MISSOURI...

CITY           SKY/WX    TMP DP  RH WIND       PRES   REMARKS
SPRINGFIELD    MOSUNNY   99  64  31 SW16      29.97F HX 101
JOPLIN         SUNNY     99  68  36 SW15      29.95F HX 104

$$
MOZ032>034-039>042-045>050-055>058-069>072-222200-
...CENTRAL MISSOURI...

CITY           SKY/WX    TMP DP  RH WIND       PRES   REMARKS
COLUMBIA       MOSUNNY   92  75  57 S7        29.95F HX 103
JEFFERSON CITY MOSUNNY   93  75  55 E5        29.92F HX 104
ROLLA          MOSUNNY   96  71  44 S7        29.95F HX 103
SEDALIA        MOSUNNY   94  74  52 S7        29.94F HX 104
OSAGE BEACH    MOSUNNY   97  72  44 NE5       29.93F HX 105

$$
MOZ051-052-059>065-222200-
...EAST CENTRAL MISSOURI...

CITY           SKY/WX    TMP DP  RH WIND       PRES   REMARKS
ST LOUIS INTL  PTSUNNY   94  74  52 SW13      29.95F HX 104
SPIRIT OF STL  PTSUNNY   92  74  55 S9G17     29.93F HX 101
ST CHARLES     PTSUNNY   92  73  53 SW7       29.92F HX 100

$$
MOZ072>076-082>087-097>100-106>115-222200-
...SOUTH CENTRAL AND SOUTHEAST MISSOURI...

CITY           SKY/WX    TMP DP  RH WIND       PRES   REMARKS
CAPE GIRARDEAU MOSUNNY   92  77  61 SW8       29.96F HX 105
FARMINGTON     PTSUNNY   93  72  49 E8        30.00S HX 100
POPLAR BLUFF   MOSUNNY   93  73  52 S8        29.96F HX 102
WEST PLAINS    MOSUNNY   95  69  42 S6        30.00F HX 100

$$


USA.gov is the U.S. government's official web portal to all federal, state and local government web resources and services.